EW3169 Weather Reports


Display with metric or nautical units.
time (UTC)temp
F
wind
direction
speed
MPH
gust
MPH
rain 1hr
in
rain 24hr
in
rain mn
in
humidity
%
barometer
mb
20210917172536 68 231 0.0 0.0 0.00 0.00 0.00 86 1024.9
20210917162521 66 225 0.0 0.0 0.00 0.00 0.00 88 1025.1
20210917155522 65 242 0.0 0.0 0.00 0.00 0.00 89 1025.2
20210917152503 63 259 0.0 0.0 0.00 0.00 0.00 90 1024.4
20210917145535 62 101 0.0 0.0 0.00 0.00 0.00 91 1024.6
20210917135449 61 137 0.0 0.0 0.00 0.00 0.00 90 1025.0
20210917132538 60 142 0.0 0.0 0.00 0.00 0.00 92 1025.3
20210917125541 59 179 0.0 0.0 0.00 0.00 0.00 92 1025.4
20210917122500 59 58 0.0 0.0 0.00 0.00 0.00 92 1025.5
20210917115534 58 58 0.0 0.0 0.00 0.00 0.00 94 1025.6
20210917112538 57 58 0.0 0.0 0.00 0.00 0.00 94 1025.7
20210917102543 57 58 0.0 0.0 0.00 0.00 0.00 95 1025.3
20210917095524 57 59 0.0 0.0 0.00 0.00 0.00 95 1026.1
20210917092549 57 59 0.0 0.0 0.00 0.00 0.00 95 1025.7
20210917085506 56 5 0.0 0.0 0.00 0.00 0.00 95 1025.0
20210917082502 56 5 0.0 0.0 0.00 0.00 0.00 95 1024.8
20210917075521 56 5 0.0 0.0 0.00 0.00 0.00 96 1024.5
20210917072514 55 5 0.0 0.0 0.00 0.00 0.00 96 1024.6
20210917065522 55 21 0.0 0.0 0.00 0.00 0.00 96 1024.8
20210917062508 55 330 0.0 0.0 0.00 0.00 0.00 96 1024.7
20210917055508 54 330 0.0 0.0 0.00 0.00 0.00 97 1024.8
20210917052457 54 330 0.0 0.0 0.00 0.00 0.00 96 1024.6
20210917045457 54 330 0.0 0.0 0.00 0.00 0.00 97 1024.8
20210917042507 54 330 0.0 0.0 0.00 0.00 0.00 96 1025.2
20210917035539 53 330 0.0 0.0 0.00 0.00 0.00 97 1025.4
20210917032533 52 341 0.0 0.0 0.00 0.00 0.00 97 1025.5
20210917025511 52 339 0.0 0.0 0.00 0.00 0.00 95 1024.7
20210917022502 53 338 0.0 0.0 0.00 0.00 0.00 95 1025.6
20210917015528 53 311 0.0 0.0 0.00 0.00 0.00 95 1024.8
20210917012508 54 261 0.0 0.0 0.00 0.00 0.00 95 1024.8
20210917002547 55 261 0.0 0.0 0.00 0.00 0.00 93 1024.8
20210916232537 57 261 0.0 0.0 0.00 0.00 0.00 89 1024.1
20210916225548 59 261 0.0 0.0 0.00 0.00 0.00 86 1023.6
20210916222516 62 261 0.0 0.0 0.00 0.00 0.00 80 1023.5
20210916215547 67 259 1.0 0.0 0.00 0.00 0.00 74 1024.0
20210916212512 70 224 1.0 0.0 0.00 0.00 0.00 67 1023.8
20210916205502 74 64 0.0 0.0 0.00 0.00 0.00 44 1023.5
20210916202452 74 92 1.0 0.0 0.00 0.00 0.00 44 1023.5
20210916195526 74 105 1.0 0.0 0.00 0.00 0.00 42 1023.4
20210916192530 74 142 2.0 0.0 0.00 0.00 0.00 43 1023.5
20210916182511 73 109 2.0 0.0 0.00 0.00 0.00 45 1024.0
20210916175518 72 13 2.0 0.0 0.00 0.00 0.00 45 1024.1